VTD4923 USRR-USTR

Flight info

Callsign VTD4923
Flight time 1h 6m
Altitude 32000
Route ANIKI T764 MAPUN N167 DELEN
Aircraft B738/M-SDE1FGHIJ1RWXYZ/LB1

Departure

Time 2026-04-28 17:48
Airport Surgut International Airport (USRR)

Arrival

Time 2026-04-28 18:55
Airport Roshchino International Airport (USTR)
Time Latitude Longitude Altitude Speed Heading
2026-04-28 17:34 61.34126 73.39546 207 ft 0 kts 360°
2026-04-28 17:42 61.34128 73.39546 207 ft 1 kts 360°
2026-04-28 17:42 61.34135 73.39546 213 ft 2 kts 360°
2026-04-28 17:42 61.34161 73.39564 211 ft 4 kts 38°
2026-04-28 17:42 61.34175 73.39625 207 ft 6 kts 79°
2026-04-28 17:43 61.34178 73.39721 207 ft 8 kts 89°
2026-04-28 17:43 61.34179 73.39846 207 ft 10 kts 89°
2026-04-28 17:43 61.34179 73.40000 207 ft 11 kts 90°
2026-04-28 17:43 61.34179 73.40178 207 ft 13 kts 90°
2026-04-28 17:44 61.34179 73.40373 207 ft 14 kts 90°
2026-04-28 17:44 61.34180 73.40581 207 ft 15 kts 89°
2026-04-28 17:44 61.34182 73.40799 207 ft 15 kts 89°
2026-04-28 17:44 61.34182 73.41012 207 ft 14 kts 89°
2026-04-28 17:45 61.34183 73.41215 216 ft 14 kts 89°
2026-04-28 17:45 61.34185 73.41410 215 ft 13 kts 88°
2026-04-28 17:45 61.34187 73.41597 207 ft 13 kts 88°
2026-04-28 17:45 61.34188 73.41779 207 ft 12 kts 90°
2026-04-28 17:46 61.34189 73.41956 207 ft 12 kts 90°
2026-04-28 17:46 61.34189 73.42129 207 ft 12 kts 89°
2026-04-28 17:46 61.34190 73.42299 207 ft 12 kts 90°
2026-04-28 17:46 61.34215 73.42462 207 ft 12 kts 45°
2026-04-28 17:47 61.34289 73.42568 208 ft 15 kts 32°
2026-04-28 17:47 61.34371 73.42640 208 ft 11 kts 348°
2026-04-28 17:47 61.34394 73.42563 201 ft 7 kts 275°
2026-04-28 17:47 61.34395 73.42518 201 ft 0 kts 270°
2026-04-28 17:48 61.34394 73.42236 201 ft 53 kts 269°
2026-04-28 17:48 61.34390 73.40912 215 ft 128 kts 269°
2026-04-28 17:48 61.34381 73.38678 448 ft 169 kts 268°
2026-04-28 17:48 61.34369 73.36261 1434 ft 163 kts 269°
2026-04-28 17:49 61.34172 73.33926 2162 ft 166 kts 244°
2026-04-28 17:49 61.33641 73.31783 2847 ft 168 kts 243°
2026-04-28 17:49 61.33110 73.29589 3505 ft 174 kts 243°
2026-04-28 17:49 61.32533 73.27163 3815 ft 202 kts 243°
2026-04-28 17:50 61.31880 73.24388 4040 ft 225 kts 244°
2026-04-28 17:50 61.31169 73.21333 4352 ft 244 kts 244°
2026-04-28 17:50 61.30401 73.18000 4720 ft 264 kts 244°
2026-04-28 17:50 61.29604 73.14523 5448 ft 269 kts 244°
2026-04-28 17:51 61.28801 73.10998 6247 ft 271 kts 244°
2026-04-28 17:51 61.27994 73.07442 7014 ft 274 kts 244°
2026-04-28 17:51 61.27177 73.03837 7767 ft 278 kts 244°
2026-04-28 17:51 61.26353 73.00197 8508 ft 281 kts 244°
2026-04-28 17:52 61.25519 72.96512 9238 ft 284 kts 244°
2026-04-28 17:52 61.24676 72.92789 9952 ft 287 kts 244°
2026-04-28 17:52 61.22888 72.84908 10600 ft 324 kts 244°
2026-04-28 17:53 61.21899 72.80558 10769 ft 345 kts 244°
2026-04-28 17:53 61.20853 72.75963 11077 ft 359 kts 244°
2026-04-28 17:53 61.19778 72.71250 11646 ft 364 kts 244°
2026-04-28 17:53 61.18692 72.66497 12319 ft 367 kts 244°
2026-04-28 17:54 61.17595 72.61710 12984 ft 370 kts 244°
2026-04-28 17:54 61.16486 72.56879 13626 ft 374 kts 244°
2026-04-28 17:54 61.15364 72.52000 14283 ft 378 kts 244°
2026-04-28 17:54 61.14231 72.47087 14937 ft 381 kts 244°
2026-04-28 17:55 61.13083 72.42122 15597 ft 385 kts 244°
2026-04-28 17:55 61.11925 72.37122 16229 ft 388 kts 244°
2026-04-28 17:55 61.10753 72.32076 16844 ft 392 kts 244°
2026-04-28 17:55 61.09570 72.26992 17435 ft 395 kts 244°
2026-04-28 17:56 61.08373 72.21862 18005 ft 399 kts 244°
2026-04-28 17:56 61.07164 72.16691 18582 ft 402 kts 244°
2026-04-28 17:56 61.05940 72.11472 19140 ft 406 kts 244°
2026-04-28 17:56 61.04708 72.06226 19681 ft 409 kts 244°
2026-04-28 17:57 61.03462 72.00936 20209 ft 412 kts 244°
2026-04-28 17:57 61.02205 71.95603 20720 ft 416 kts 244°
2026-04-28 17:57 61.00935 71.90239 21185 ft 419 kts 244°
2026-04-28 17:57 60.99645 71.84828 21644 ft 423 kts 243°
2026-04-28 17:58 60.98284 71.79463 22133 ft 425 kts 242°
2026-04-28 17:58 60.96873 71.74106 22591 ft 427 kts 241°
2026-04-28 17:58 60.95443 71.68733 23033 ft 430 kts 241°
2026-04-28 17:58 60.94005 71.63324 23432 ft 433 kts 241°
2026-04-28 17:59 60.92562 71.57877 23837 ft 436 kts 241°
2026-04-28 17:59 60.91115 71.52398 24235 ft 439 kts 241°
2026-04-28 17:59 60.89658 71.46878 24620 ft 441 kts 241°
2026-04-28 17:59 60.88194 71.41336 24992 ft 444 kts 241°
2026-04-28 18:00 60.86717 71.35767 25355 ft 446 kts 241°
2026-04-28 18:00 60.85229 71.30171 25709 ft 449 kts 241°
2026-04-28 18:00 60.83731 71.24551 26042 ft 451 kts 241°
2026-04-28 18:00 60.82222 71.18895 26369 ft 454 kts 241°
2026-04-28 18:01 60.80706 71.13228 26675 ft 456 kts 241°
2026-04-28 18:01 60.79179 71.07529 26994 ft 458 kts 241°
2026-04-28 18:01 60.77644 71.01814 27296 ft 460 kts 241°
2026-04-28 18:01 60.76098 70.96075 27608 ft 462 kts 241°
2026-04-28 18:02 60.74549 70.90337 27988 ft 461 kts 241°
2026-04-28 18:02 60.73003 70.84622 28424 ft 460 kts 241°
2026-04-28 18:02 60.71457 70.78926 28858 ft 458 kts 241°
2026-04-28 18:02 60.69917 70.73263 29248 ft 458 kts 241°
2026-04-28 18:03 60.68373 70.67599 29619 ft 457 kts 240°
2026-04-28 18:03 60.66828 70.61945 30018 ft 457 kts 240°
2026-04-28 18:03 60.65288 70.56318 30400 ft 455 kts 240°
2026-04-28 18:03 60.63743 70.50695 30780 ft 454 kts 240°
2026-04-28 18:04 60.62162 70.45152 31134 ft 454 kts 238°
2026-04-28 18:04 60.60476 70.39741 31517 ft 452 kts 237°
2026-04-28 18:04 60.58749 70.34414 31901 ft 451 kts 236°
2026-04-28 18:04 60.57012 70.29114 31990 ft 455 kts 236°
2026-04-28 18:05 60.54092 70.20181 32001 ft 455 kts 236°
2026-04-28 18:05 60.50068 70.07780 32002 ft 449 kts 237°
2026-04-28 18:06 60.46640 69.97214 32008 ft 450 kts 236°
2026-04-28 18:06 60.43194 69.86642 32006 ft 451 kts 236°
2026-04-28 18:07 60.39739 69.76089 32002 ft 452 kts 236°
2026-04-28 18:07 60.36266 69.65526 32002 ft 452 kts 236°
2026-04-28 18:08 60.32777 69.54983 32002 ft 452 kts 236°
2026-04-28 18:08 60.29276 69.44467 32001 ft 452 kts 236°
2026-04-28 18:09 60.25768 69.33968 32001 ft 452 kts 236°
2026-04-28 18:09 60.22255 69.23498 32001 ft 452 kts 236°
2026-04-28 18:10 60.18738 69.13062 32001 ft 452 kts 236°
2026-04-28 18:10 60.15214 69.02649 32001 ft 451 kts 236°
2026-04-28 18:11 60.11687 68.92275 32001 ft 451 kts 236°
2026-04-28 18:11 60.08154 68.81928 32001 ft 451 kts 235°
2026-04-28 18:12 60.04613 68.71604 32001 ft 450 kts 235°
2026-04-28 18:12 60.01071 68.61319 32001 ft 450 kts 235°
2026-04-28 18:13 59.97517 68.51047 32001 ft 450 kts 235°
2026-04-28 18:13 59.93957 68.40795 32001 ft 450 kts 235°
2026-04-28 18:14 59.90392 68.30588 32002 ft 450 kts 235°
2026-04-28 18:14 59.86803 68.20388 32001 ft 450 kts 235°
2026-04-28 18:15 59.83207 68.10210 32001 ft 450 kts 234°
2026-04-28 18:15 59.79607 68.00059 32001 ft 451 kts 234°
2026-04-28 18:16 59.75994 67.89913 32001 ft 451 kts 234°
2026-04-28 18:16 59.72377 67.79797 32001 ft 451 kts 234°
2026-04-28 18:17 59.68750 67.69696 32001 ft 451 kts 234°
2026-04-28 18:17 59.65117 67.59623 32001 ft 451 kts 234°
2026-04-28 18:18 59.61474 67.49566 32001 ft 451 kts 234°
2026-04-28 18:18 59.58433 67.41203 32001 ft 451 kts 234°
2026-04-28 18:19 59.54165 67.29516 32001 ft 451 kts 234°
2026-04-28 18:19 59.50501 67.19528 32001 ft 451 kts 234°
2026-04-28 18:20 59.46832 67.09566 32001 ft 451 kts 234°
2026-04-28 18:20 59.43153 66.99620 32001 ft 451 kts 234°
2026-04-28 18:21 59.39469 66.89699 32001 ft 450 kts 234°
2026-04-28 18:21 59.35781 66.79801 32001 ft 450 kts 234°
2026-04-28 18:22 59.32155 66.69824 32001 ft 450 kts 234°
2026-04-28 18:22 59.28548 66.59825 32002 ft 450 kts 234°
2026-04-28 18:23 59.24932 66.49857 32001 ft 450 kts 234°
2026-04-28 18:23 59.21312 66.39970 32739 ft 440 kts 239°
2026-04-28 18:24 59.19557 66.35206 32437 ft 426 kts 239°
2026-04-28 18:24 59.18416 66.32108 32283 ft 418 kts 239°
2026-04-28 18:24 59.16188 66.26053 32110 ft 412 kts 239°
2026-04-28 18:24 59.14523 66.21522 32063 ft 414 kts 239°
2026-04-28 18:25 59.11164 66.12415 31992 ft 416 kts 239°
2026-04-28 18:26 59.06098 65.98775 31989 ft 416 kts 239°
2026-04-28 18:26 59.02711 65.89708 31990 ft 416 kts 238°
2026-04-28 18:27 58.99318 65.80659 31987 ft 415 kts 238°
2026-04-28 18:27 58.95918 65.71627 31986 ft 415 kts 238°
2026-04-28 18:28 58.92516 65.62623 31987 ft 415 kts 238°
2026-04-28 18:28 58.89105 65.53625 31622 ft 416 kts 238°
2026-04-28 18:28 58.87410 65.49174 31206 ft 409 kts 238°
2026-04-28 18:29 58.85736 65.44785 30785 ft 404 kts 238°
2026-04-28 18:29 58.84077 65.40442 30325 ft 400 kts 238°
2026-04-28 18:29 58.82435 65.36149 29849 ft 397 kts 237°
2026-04-28 18:29 58.80804 65.31891 29336 ft 393 kts 237°
2026-04-28 18:30 58.79188 65.27680 28883 ft 389 kts 237°
2026-04-28 18:30 58.78119 65.24897 28563 ft 387 kts 237°
2026-04-28 18:30 58.76002 65.19398 27955 ft 382 kts 237°
2026-04-28 18:30 58.74426 65.15311 27501 ft 379 kts 237°
2026-04-28 18:31 58.72861 65.11260 27046 ft 376 kts 237°
2026-04-28 18:31 58.71307 65.07246 26602 ft 374 kts 236°
2026-04-28 18:31 58.69760 65.03255 26157 ft 372 kts 236°
2026-04-28 18:31 58.68221 64.99288 25720 ft 370 kts 236°
2026-04-28 18:32 58.66690 64.95349 25281 ft 368 kts 236°
2026-04-28 18:32 58.65164 64.91430 24859 ft 366 kts 236°
2026-04-28 18:32 58.63642 64.87532 24422 ft 365 kts 236°
2026-04-28 18:32 58.62067 64.83742 23998 ft 366 kts 227°
2026-04-28 18:33 58.59988 64.80927 23580 ft 371 kts 208°
2026-04-28 18:33 58.57537 64.79468 23291 ft 371 kts 191°
2026-04-28 18:33 58.54943 64.79200 23053 ft 378 kts 185°
2026-04-28 18:33 58.52321 64.79146 22647 ft 376 kts 184°
2026-04-28 18:34 58.49726 64.79136 22240 ft 372 kts 184°
2026-04-28 18:34 58.47156 64.79126 21809 ft 368 kts 184°
2026-04-28 18:34 58.44613 64.79102 21411 ft 365 kts 184°
2026-04-28 18:34 58.42094 64.79065 20985 ft 362 kts 184°
2026-04-28 18:35 58.39591 64.79019 20579 ft 359 kts 184°
2026-04-28 18:35 58.37109 64.78967 20168 ft 356 kts 184°
2026-04-28 18:35 58.34646 64.78912 19768 ft 353 kts 184°
2026-04-28 18:35 58.32202 64.78857 19373 ft 351 kts 184°
2026-04-28 18:36 58.29774 64.78801 18984 ft 348 kts 184°
2026-04-28 18:36 58.27364 64.78745 18592 ft 346 kts 184°
2026-04-28 18:36 58.24970 64.78690 18183 ft 344 kts 183°
2026-04-28 18:36 58.22592 64.78635 17741 ft 341 kts 183°
2026-04-28 18:37 58.20230 64.78580 17348 ft 338 kts 183°
2026-04-28 18:37 58.17898 64.78527 16966 ft 334 kts 183°
2026-04-28 18:37 58.15585 64.78474 16571 ft 331 kts 183°
2026-04-28 18:37 58.13297 64.78421 16189 ft 328 kts 183°
2026-04-28 18:38 58.11028 64.78369 15798 ft 326 kts 183°
2026-04-28 18:38 58.08780 64.78318 15440 ft 322 kts 182°
2026-04-28 18:38 58.06549 64.78267 15061 ft 320 kts 182°
2026-04-28 18:38 58.04334 64.78267 14690 ft 318 kts 178°
2026-04-28 18:39 58.02155 64.78937 14386 ft 318 kts 167°
2026-04-28 18:39 58.00063 64.80213 14155 ft 316 kts 163°
2026-04-28 18:39 57.97974 64.81544 13911 ft 319 kts 163°
2026-04-28 18:39 57.95882 64.82877 13571 ft 316 kts 163°
2026-04-28 18:40 57.93812 64.84192 13187 ft 313 kts 163°
2026-04-28 18:40 57.91763 64.85488 12821 ft 310 kts 163°
2026-04-28 18:40 57.89728 64.86771 12449 ft 307 kts 163°
2026-04-28 18:40 57.87716 64.88036 12085 ft 305 kts 163°
2026-04-28 18:41 57.85717 64.89290 11714 ft 302 kts 163°
2026-04-28 18:41 57.83732 64.90548 11424 ft 299 kts 167°
2026-04-28 18:41 57.81783 64.91782 11077 ft 295 kts 168°
2026-04-28 18:41 57.79854 64.92981 10720 ft 291 kts 168°
2026-04-28 18:42 57.77950 64.94163 10501 ft 283 kts 168°
2026-04-28 18:42 57.76121 64.95302 10381 ft 273 kts 168°
2026-04-28 18:42 57.74353 64.96403 10263 ft 263 kts 169°
2026-04-28 18:42 57.72647 64.97463 10145 ft 254 kts 169°
2026-04-28 18:43 57.71003 64.98483 10044 ft 245 kts 169°
2026-04-28 18:43 57.69402 64.99473 9825 ft 242 kts 169°
2026-04-28 18:43 57.67818 65.00450 9574 ft 239 kts 169°
2026-04-28 18:43 57.66247 65.01420 9304 ft 237 kts 169°
2026-04-28 18:44 57.64690 65.02381 9031 ft 235 kts 169°
2026-04-28 18:44 57.61609 65.04283 8523 ft 232 kts 169°
2026-04-28 18:44 57.60090 65.05256 8262 ft 233 kts 164°
2026-04-28 18:45 57.58732 65.06967 8094 ft 238 kts 149°
2026-04-28 18:45 57.57442 65.08943 7838 ft 243 kts 150°
2026-04-28 18:45 57.56117 65.10948 7596 ft 250 kts 149°
2026-04-28 18:45 57.54754 65.13003 7335 ft 256 kts 149°
2026-04-28 18:46 57.53371 65.15087 7066 ft 256 kts 149°
2026-04-28 18:46 57.51995 65.17162 6775 ft 254 kts 149°
2026-04-28 18:46 57.50628 65.19220 6509 ft 253 kts 149°
2026-04-28 18:46 57.49267 65.21265 6235 ft 251 kts 149°
2026-04-28 18:47 57.47917 65.23288 5964 ft 249 kts 150°
2026-04-28 18:47 57.46569 65.25303 5677 ft 249 kts 149°
2026-04-28 18:47 57.45225 65.27311 5393 ft 248 kts 149°
2026-04-28 18:47 57.43884 65.29314 5124 ft 247 kts 149°
2026-04-28 18:48 57.42549 65.31304 4865 ft 246 kts 149°
2026-04-28 18:48 57.41221 65.33284 4611 ft 245 kts 149°
2026-04-28 18:48 57.39906 65.35241 4376 ft 241 kts 150°
2026-04-28 18:48 57.38606 65.37176 4046 ft 240 kts 146°
2026-04-28 18:49 57.37322 65.39084 3907 ft 232 kts 146°
2026-04-28 18:49 57.36494 65.40316 3833 ft 227 kts 145°
2026-04-28 18:49 57.34951 65.42847 3707 ft 217 kts 142°
2026-04-28 18:49 57.33857 65.44697 3614 ft 209 kts 143°
2026-04-28 18:50 57.32806 65.46469 3558 ft 199 kts 143°
2026-04-28 18:50 57.31810 65.48144 3422 ft 190 kts 143°
2026-04-28 18:50 57.30842 65.49764 3233 ft 186 kts 144°
2026-04-28 18:50 57.29826 65.51088 3013 ft 173 kts 169°
2026-04-28 18:51 57.28756 65.50758 2867 ft 156 kts 213°
2026-04-28 18:51 57.27899 65.49517 2700 ft 158 kts 217°
2026-04-28 18:51 57.27072 65.48219 2605 ft 150 kts 218°
2026-04-28 18:51 57.26330 65.47005 2380 ft 137 kts 220°
2026-04-28 18:52 57.25679 65.45804 2211 ft 127 kts 222°
2026-04-28 18:52 57.25098 65.44639 2064 ft 122 kts 222°
2026-04-28 18:52 57.24531 65.43492 1918 ft 120 kts 222°
2026-04-28 18:52 57.23963 65.42345 1769 ft 123 kts 221°
2026-04-28 18:53 57.23385 65.41171 1644 ft 124 kts 221°
2026-04-28 18:53 57.22799 65.39985 1446 ft 128 kts 222°
2026-04-28 18:53 57.22182 65.38741 1206 ft 134 kts 223°
2026-04-28 18:53 57.21545 65.37432 972 ft 141 kts 225°
2026-04-28 18:54 57.20889 65.36111 849 ft 139 kts 225°
2026-04-28 18:54 57.20232 65.34803 684 ft 140 kts 226°
2026-04-28 18:54 57.19573 65.33476 578 ft 142 kts 225°
2026-04-28 18:54 57.18892 65.32092 404 ft 149 kts 225°
2026-04-28 18:55 57.18200 65.30685 381 ft 144 kts 225°
2026-04-28 18:55 57.17764 65.29807 381 ft 135 kts 226°
2026-04-28 18:55 57.17362 65.28990 385 ft 34 kts 227°
2026-04-28 18:55 57.17208 65.28692 386 ft 31 kts 227°
2026-04-28 18:56 57.17068 65.28410 383 ft 29 kts 227°
2026-04-28 18:56 57.16980 65.28231 381 ft 14 kts 228°
2026-04-28 18:56 57.16901 65.28225 381 ft 13 kts 126°
2026-04-28 18:56 57.16871 65.28380 383 ft 11 kts 108°
2026-04-28 18:57 57.16863 65.28517 383 ft 11 kts 69°
2026-04-28 18:57 57.16909 65.28624 384 ft 11 kts 47°
2026-04-28 18:57 57.16957 65.28723 385 ft 10 kts 47°
2026-04-28 18:57 57.17004 65.28818 385 ft 10 kts 48°
2026-04-28 18:58 57.17050 65.28911 386 ft 10 kts 48°
2026-04-28 18:58 57.17094 65.29002 386 ft 9 kts 48°
2026-04-28 18:58 57.17138 65.29090 386 ft 9 kts 48°
2026-04-28 18:58 57.17180 65.29176 387 ft 9 kts 48°
2026-04-28 18:59 57.17221 65.29260 387 ft 9 kts 48°
2026-04-28 18:59 57.17261 65.29341 387 ft 8 kts 48°
2026-04-28 18:59 57.17300 65.29420 386 ft 9 kts 47°
2026-04-28 18:59 57.17346 65.29513 386 ft 11 kts 47°
2026-04-28 19:00 57.17401 65.29623 385 ft 13 kts 47°
2026-04-28 19:00 57.17466 65.29752 384 ft 15 kts 47°
2026-04-28 19:00 57.17539 65.29900 383 ft 17 kts 47°
2026-04-28 19:00 57.17622 65.30067 381 ft 19 kts 47°
2026-04-28 19:01 57.17714 65.30252 379 ft 20 kts 47°
2026-04-28 19:01 57.17805 65.30434 377 ft 19 kts 47°
2026-04-28 19:01 57.17892 65.30611 374 ft 18 kts 48°
2026-04-28 19:01 57.17975 65.30786 371 ft 18 kts 50°
2026-04-28 19:02 57.18055 65.30953 368 ft 17 kts 47°
2026-04-28 19:02 57.18134 65.31112 365 ft 17 kts 47°
2026-04-28 19:02 57.18210 65.31265 361 ft 16 kts 47°
2026-04-28 19:02 57.18284 65.31413 358 ft 16 kts 48°
2026-04-28 19:03 57.18360 65.31571 358 ft 18 kts 48°
2026-04-28 19:03 57.18443 65.31757 353 ft 20 kts 65°
2026-04-28 19:03 57.18460 65.32026 338 ft 23 kts 88°
2026-04-28 19:03 57.18463 65.32336 329 ft 26 kts 89°
2026-04-28 19:04 57.18469 65.32665 328 ft 25 kts 88°
2026-04-28 19:04 57.18475 65.32972 332 ft 23 kts 88°
2026-04-28 19:04 57.18478 65.33234 334 ft 17 kts 96°
2026-04-28 19:04 57.18417 65.33418 338 ft 17 kts 134°
2026-04-28 19:05 57.18337 65.33570 337 ft 16 kts 134°
2026-04-28 19:05 57.18258 65.33714 336 ft 16 kts 135°
2026-04-28 19:05 57.18177 65.33863 337 ft 16 kts 134°
2026-04-28 19:05 57.18100 65.34009 335 ft 16 kts 134°
2026-04-28 19:06 57.18025 65.34145 339 ft 15 kts 135°
2026-04-28 19:06 57.17977 65.34234 336 ft 15 kts 134°
2026-04-28 19:06 57.17891 65.34414 345 ft 14 kts 109°
2026-04-28 19:06 57.17929 65.34566 336 ft 14 kts 46°
2026-04-28 19:07 57.17992 65.34694 340 ft 13 kts 70°
2026-04-28 19:07 57.17955 65.34840 339 ft 12 kts 113°
2026-04-28 19:07 57.17961 65.34897 339 ft 3 kts 57°
2026-04-28 19:07 57.17975 65.34926 337 ft 3 kts 46°
2026-04-28 19:08 57.17985 65.34944 340 ft 0 kts 45°